Cosmos 1939 - Orbit

View from above orbital plane
View from above orbital plane
View from above satellite
View from above satellite

Ground track
Ground track

The orbit data is extracted from the following two-line orbital elements,

1 19045U 88032A   13170.52181565  .00016372  00000-0  35678-3 0  5206
2 19045 097.2775 228.8298 0004982 002.6606 357.5189 15.44242703384230
Epoch (UTC): 19 June 2013 12:31:24
Eccentricity: 0.0004982
inclination: 97.2775°
perigee height: 430 km
apogee height: 437 km
right ascension of ascending node: 228.8298°
argument of perigee: 2.6606°
revolutions per day: 15.44242703
mean anomaly at epoch: 357.5189°
orbit number at epoch: 38423

The dashed part of the orbit path shows where the satellite is in the earth's shadow,  

Developed and maintained by Chris Peat, Heavens-Above GmbH. Please read the updated FAQ before sending e-mail. Imprint. DLR